Regional Weather Roundup
Issued by NWS

Home | Current Version | Previous Version | Text Only | Print | Product List | Glossary On
Versions: 1 2 3 4 5 6 7 8 9 10 11 12 13 14 15 16 17 18 19 20 21 22 23 24 25 26 27 28 29 30 31 32 33 34 35 36 37 38 39 40 41 42 43 44 45 46 47 48 49 50
000
ASUS43 KDTX 260210
RWRMI
MICHIGAN HOURLY REGIONAL WEATHER ROUNDUP
NATIONAL WEATHER SERVICE DETROIT/PONTIAC MI
1000 PM EDT TUE APR 25 2017

NOTE: "FAIR" INDICATES FEW OR NO CLOUDS BELOW 12,000 FEET WITH NO
SIGNIFICANT WEATHER AND/OR OBSTRUCTION TO VISIBILITY.

MIZ047>049-052>055-059>063-066>070-074>076-081>083-260300-
SOUTHEAST LOWER MICHIGAN

CITY           SKY/WX    TMP DP  RH WIND       PRES   REMARKS
ADRIAN         CLEAR     56  51  84 SE8       29.70S
ALMA           PTCLDY    64  55  73 E6        29.69R
ANN ARBOR      CLEAR     60  53  77 E7        29.71R
BAD AXE        CLEAR     55  51  85 SE9       29.75R
CARO           CLEAR     62  53  73 SE10      29.72R
DETROIT CITY   CLEAR     56  51  84 E9        29.74R
DETROIT        MOCLDY    59  52  77 E9        29.73R
FLINT          PTCLDY    62  52  69 SE10      29.71R
GROSSE ILE     CLEAR     55  50  82 E3        29.72R
HILLSDALE      CLOUDY    59  50  72 E9        29.69R
HOWELL         CLEAR     64  51  64 SE13      29.70R

CITY           SKY/WX    TMP DP  RH WIND       PRES   REMARKS
JACKSON        PTCLDY    62  52  69 SE14      29.69R
LAMBERTVILLE   CLEAR     53  50  90 E6        29.70S
LANSING        PTCLDY    66  52  60 SE7       29.70R
LAPEER         FAIR      61  52  73 SE12G17   29.74R
MASON          PTCLDY    64  54  70 SE7       29.69R
MONROE         CLEAR     53  49  86 E9        29.71S
MT. CLEMENS    PTCLDY    56  55  98 E8        29.73S
PONTIAC        PTCLDY    59  51  75 E12       29.72R
PORT HOPE        N/A     55  51  86 SE16G26   29.73S
PORT HURON     CLEAR     61  50  67 SE9       29.75S
TRI CITIES     PTCLDY    65  55  70 SE12      29.71R
MIDLAND        FAIR      60  52  75 E3        29.70R
TROY           CLEAR     59  49  69 E8        29.76R
SAGINAW HB     PTCLDY    63  50  63 SE8       29.71R
$$
MIZ043>046-050>051-056>058-064>065-071>073-077>080-260300-
SOUTHWEST LOWER MICHIGAN

CITY           SKY/WX    TMP DP  RH WIND       PRES   REMARKS
BATTLE CREEK   PTCLDY    68  54  60 SE9       29.67R
BENTON HARBOR  CLOUDY    65  53  65 E5        29.61R
BIG RAPIDS     CLOUDY    64  53  67 S7        29.67R
COLDWATER      PTCLDY    63  54  71 E5        29.67R
FREMONT        CLOUDY    66  52  59 E3        29.65S
HOLLAND        CLOUDY    64  55  72 E6        29.63F
GRAND RAPIDS   CLOUDY    65  56  72 E7        29.65R
IONIA          FAIR      64  54  69 E9        29.66S
KALAMAZOO      CLOUDY    66  52  60 E5        29.66R
LUDINGTON      CLOUDY    59  54  85 CALM      29.64R
MARSHALL       PTCLDY    65  53  65 E8G18     29.67R
MOUNT PLEASANT CLOUDY    61  52  74 E3        29.68S
MUSKEGON       CLOUDY    66  54  65 E6        29.64R
SOUTH HAVEN    PTCLDY    65  54  68 CALM      29.62R
$$
MIZ016>042-260300-
NORTHERN LOWER MICHIGAN

CITY           SKY/WX    TMP DP  RH WIND       PRES   REMARKS
ALPENA         CLOUDY    46  45  96 SE6       29.77S
BEAVER ISLAND  CLOUDY    42  41  97 E13       29.72R FOG
BELLAIRE       CLOUDY    64  51  61 CALM      29.69R
CADILLAC       CLOUDY    62  53  72 E8        29.69S
CHARLEVOIX     CLOUDY    60  48  64 E5        29.71R
FRANKFORT      CLOUDY    59  49  69 CALM      29.66R
GAYLORD        CLOUDY    63  49  60 SE8       29.71R
GRAYLING       CLOUDY    62  51  69 SE14      29.72R
HARBOR SPRINGS CLOUDY    51  45  79 E8        29.71R
HOUGHTON LAKE  CLOUDY    61  52  72 E8        29.72R
MANISTEE       CLOUDY    66  53  63 E5        29.65R
OSCODA         MOCLDY    49  47  93 SE6       29.75R FOG
PELLSTON       CLOUDY    45  41  86 NE5       29.73S
ROGERS CITY    MOCLDY    45  42  91 E5        29.77R FOG
TRAVERSE CITY  CLOUDY    54  44  69 E5        29.67R
$$
MIZ007>008-015-260300-
EASTERN UPPER MICHIGAN

CITY           SKY/WX    TMP DP  RH WIND       PRES   REMARKS
KINROSS        LGT RAIN  45  45 100 E13       29.77S FOG
MACKINAC ISLAN SNOW      42  42 100 E18G28    29.75R VSB 1/4
NEWBERRY       CLOUDY    47  46  96 E12G17    29.72R
S. S. MARIE    CLOUDY    50  47  89 E9        29.78R
MUNISING         N/A     58  46  64 S13       29.66R
$$
MIZ004>006-011>014-085-260300-
CENTRAL UPPER MICHIGAN

CITY           SKY/WX    TMP DP  RH WIND       PRES   REMARKS
MANISTIQUE     PTCLDY    48  47  97 E13G18    29.69S
ESCANABA       LGT RAIN  49  44  83 E9        29.68R
MENOMINEE      CLOUDY    52  47  83 E7        29.65R
SAWYER-GWINN   CLEAR     55  46  71 S10       29.67R
$$
MIZ001>003-009>011-084-260300-
WESTERN UPPER MICHIGAN

CITY           SKY/WX    TMP DP  RH WIND       PRES   REMARKS
IRON MOUNTAIN  LGT RAIN  56  47  71 E6        29.65R
HOUGHTON       LGT RAIN  41  37  86 N18       29.65R
COPPER HARBOR    N/A     40  36  86 E13       29.73R WCI  32
IRONWOOD       CLOUDY    36  35  96 N10G16    29.72R WCI  28
$$

ABBREVIATIONS USED IN REMARKS
   TC - TEMPERATURE IN CELSIUS
  WCI - WIND CHILL INDEX
   HX - HEAT INDEX
  VSB - VISIBILITY




USA.gov is the U.S. government's official web portal to all federal, state and local government web resources and services.